CW2049 Weather Reports


Display with metric or nautical units.
time (UTC)temp
F
wind
direction
speed
MPH
gust
MPH
rain 1hr
in
rain 24hr
in
rain mn
in
humidity
%
barometer
mb
20260505111510 50 359 0.0 0.0 0.00 0.00 0.00 78 1009.1
20260505101501 52 359 0.0 0.0 0.00 0.00 0.00 74 1008.5
20260505100059 52 359 0.0 0.0 0.00 0.00 0.00 72 1008.4
20260505094557 52 359 0.0 0.0 0.00 0.00 0.00 73 1008.4
20260505093056 52 359 0.0 0.0 0.00 0.00 0.00 72 1008.2
20260505091606 53 359 0.0 0.0 0.00 0.00 0.00 73 1008.1
20260505090053 53 359 0.0 0.0 0.00 0.00 0.00 72 1008.2
20260505084552 53 359 0.0 0.0 0.00 0.00 0.00 73 1007.9
20260505083049 53 359 0.0 0.0 0.00 0.00 0.00 72 1007.8
20260505081547 55 359 0.0 0.0 0.00 0.00 0.00 68 1007.8
20260505080046 55 359 0.0 0.0 0.00 0.00 0.00 66 1007.7
20260505074539 56 359 0.0 0.0 0.00 0.00 0.00 64 1007.4
20260505073042 57 359 0.0 0.0 0.00 0.00 0.00 63 1007.3
20260505071534 57 359 0.0 0.0 0.00 0.00 0.00 61 1007.1
20260505070039 59 359 0.0 0.0 0.00 0.00 0.00 59 1006.9
20260505064530 59 359 0.0 0.0 0.00 0.00 0.00 58 1006.7
20260505063029 60 359 0.0 0.0 0.00 0.00 0.00 56 1006.4
20260505061536 59 359 0.0 0.0 0.00 0.00 0.00 57 1006.4
20260505060028 60 359 0.0 0.0 0.00 0.00 0.00 56 1006.3
20260505054534 60 359 0.0 0.0 0.00 0.00 0.00 56 1006.2
20260505053030 61 359 0.0 0.0 0.00 0.00 0.00 55 1006.2
20260505051528 62 359 0.0 0.0 0.00 0.00 0.00 50 1006.1
20260505041537 62 359 0.0 0.0 0.00 0.00 0.00 54 1005.8
20260505040036 63 359 0.0 0.0 0.00 0.00 0.00 50 1005.7
20260505034525 64 359 0.0 0.0 0.00 0.00 0.00 48 1005.6
20260505033024 66 359 0.0 0.0 0.00 0.00 0.00 44 1005.5
20260505031536 68 310 0.0 0.0 0.00 0.00 0.00 42 1005.2
20260505030023 70 359 0.0 0.0 0.00 0.00 0.00 35 1005.0
20260505024522 72 310 0.0 0.0 0.00 0.00 0.00 33 1004.8
20260505023022 73 310 0.0 0.0 0.00 0.00 0.00 31 1004.6
20260505021522 74 313 0.0 0.0 0.00 0.00 0.00 31 1004.4
20260505020021 74 289 0.0 2.0 0.00 0.00 0.00 31 1004.3
20260505014528 75 293 0.0 0.0 0.00 0.00 0.00 31 1004.3
20260505013020 76 293 0.0 0.0 0.00 0.00 0.00 30 1004.3
20260505011520 76 302 0.0 8.0 0.00 0.00 0.00 28 1004.3
20260505010024 77 295 0.0 10.0 0.00 0.00 0.00 29 1004.2
20260505004524 78 283 0.0 5.0 0.00 0.00 0.00 28 1004.1
20260505003018 79 335 0.0 5.0 0.00 0.00 0.00 26 1004.1
20260505001518 79 333 3.0 13.0 0.00 0.00 0.00 27 1004.1
20260505000017 80 308 1.0 12.0 0.00 0.00 0.00 26 1004.0
20260504234516 80 359 2.0 16.0 0.00 0.00 0.00 24 1004.1
20260504233016 80 299 1.0 9.0 0.00 0.00 0.00 24 1004.0
20260504231515 79 310 1.0 14.0 0.00 0.00 0.00 24 1003.9
20260504230015 80 339 1.0 7.0 0.00 0.00 0.00 24 1003.9
20260504224518 81 309 6.0 16.0 0.00 0.00 0.00 23 1003.9
20260504223025 81 324 3.0 11.0 0.00 0.00 0.00 23 1004.1
20260504221511 81 347 0.0 6.0 0.00 0.00 0.00 23 1004.2
20260504220015 81 35 0.0 13.0 0.00 0.00 0.00 24 1004.4
20260504214508 81 301 2.0 13.0 0.00 0.00 0.00 24 1004.5
20260504213019 81 289 4.0 12.0 0.00 0.00 0.00 24 1004.7
20260504211507 81 336 6.0 14.0 0.00 0.00 0.00 26 1004.6
20260504210005 81 297 4.0 11.0 0.00 0.00 0.00 24 1004.7
20260504204512 80 324 7.0 14.0 0.00 0.00 0.00 25 1004.7
20260504203002 80 315 3.0 11.0 0.00 0.00 0.00 30 1004.7
20260504201601 79 313 1.0 11.0 0.00 0.00 0.00 29 1004.9
20260504200115 79 320 0.0 6.0 0.00 0.00 0.00 29 1005.0
20260504194552 78 312 3.0 8.0 0.00 0.00 0.00 31 1005.1
20260504193054 77 324 1.0 5.0 0.00 0.00 0.00 32 1005.3
20260504191555 76 314 0.0 6.0 0.00 0.00 0.00 31 1005.5
20260504190047 76 314 0.0 2.0 0.00 0.00 0.00 31 1005.6
20260504184545 76 312 0.0 0.0 0.00 0.00 0.00 34 1005.8
20260504183039 74 310 0.0 1.0 0.00 0.00 0.00 33 1006.1
20260504181543 74 307 0.0 0.0 0.00 0.00 0.00 33 1006.3
20260504180035 74 168 0.0 0.0 0.00 0.00 0.00 32 1006.5
20260504174529 71 168 0.0 0.0 0.00 0.00 0.00 38 1006.7
20260504173025 70 168 0.0 0.0 0.00 0.00 0.00 38 1006.9
20260504171521 68 168 0.0 0.0 0.00 0.00 0.00 41 1007.1